Terminal Aerodrome Forecast
Issued by NWS

Home | Current Version | Previous Version | Text Only | Print | Product List | Glossary On
Versions: 1 2 3 4 5 6 7 8 9 10 11 12 13 14 15 16 17 18 19 20 21 22 23 24 25 26 27 28 29
000
FTUS41 KALY 182300 RRA
TAFPSF
TAF
KPSF 182341Z 1900/1924 30006KT P6SM FEW040
     FM190400 33003KT P6SM SCT040
     FM190700 VRB02KT 6SM BR FEW003
      TEMPO 1907/1911 2SM BR BKN003
     FM191300 03006KT P6SM SKC
     FM191900 16006KT P6SM SKC=

USA.gov is the U.S. government's official web portal to all federal, state and local government web resources and services.